Location: Haliburton Scout Reserve
(45.0900°N, 78.3200°W)
Time: 12:34:47
(UTC-04:00)

IDEFIX/ARIANE 42P - Visible Passes

Search period start: 01 April 2015 00:00
Search period end: 11 April 2015 00:00
Orbit: 785 x 804 km, 98.3° (Epoch: 31 March)

Date Brightness Start Highest point End Pass type
(mag) Time Alt. Az. Time Alt. Az. Time Alt. Az.
01 Apr 4.1 21:00:21 10° SSW 21:05:10 37° W 21:09:58 10° NNW visible
02 Apr 3.0 20:31:38 10° S 20:36:48 66° WSW 20:42:00 10° NNW visible
03 Apr 2.6 20:03:23 10° SSE 20:08:34 72° ENE 20:13:46 10° N visible
03 Apr 5.3 21:45:41 10° SW 21:48:50 15° W 21:51:46 10° NW visible
04 Apr 4.6 21:15:48 10° SSW 21:20:14 27° W 21:24:35 10° NW visible
05 Apr 3.6 20:46:46 10° S 20:51:47 48° W 20:56:49 10° NNW visible
06 Apr 2.7 20:18:16 10° SSE 20:23:29 84° WSW 20:28:43 10° NNW visible
06 Apr 5.6 22:02:33 10° W 22:04:02 11° W 22:05:11 10° WNW visible
07 Apr 5.1 21:31:29 10° SW 21:35:21 20° W 21:39:03 10° NW visible
08 Apr 4.2 21:02:03 10° SSW 21:06:48 35° W 21:11:32 10° NNW visible
09 Apr 3.1 20:33:17 10° S 20:38:26 62° W 20:43:35 10° NNW visible
10 Apr 5.3 21:47:33 10° WSW 21:50:30 15° W 21:53:12 10° NW visible
